Location: Oriwa
(40.7500°S, 175.3333°E)
Time: 14:14:33
(UTC+00:00)

Resurs 1-4 Rocket - Pass Details

Date: 03 February 2023
Orbit: 800 x 813 km, 98.7° (Epoch: 30 March)

Event Time Altitude Azimuth Distance (km) Brightness Sun altitude
Exits shadow 14:27:53 15° 245° (WSW) 2,095 4.2 -26.8°
Drops below altitude 10° 14:29:28 10° 230° (SW) 2,431 4.7 -26.7°
Sets 14:32:38 0° 210° (SSW) 3,372 5.7 -26.3°
